• Em Portugal
  • Lista de países
  • Para 7 dias
  • Temperatura da água
  • Mapas de satélite
  • Mapa do tempo
  • Widgets de tempo
  • user-avatar
    Iniciar Sessão

    Previsão horária em Gaziantep

    Hoje, 11 Dezembro, Segunda-feira

    Tempo Temperatura Precipitação Vento Pressão Humidade
    00:00 +2°C° 0 mm 2 m/s 676 mmHg 56%
    01:00 +3°C° 0 mm 1 m/s 676 mmHg 57%
    02:00 +3°C° 0 mm 1 m/s 676 mmHg 58%
    03:00 +2°C° 0 mm 1 m/s 676 mmHg 58%
    04:00 +2°C° 0 mm 1 m/s 676 mmHg 59%
    05:00 +2°C° 0 mm 1 m/s 676 mmHg 59%
    06:00 +3°C° 0 mm 1 m/s 676 mmHg 57%
    07:00 +4°C° 0 mm 1 m/s 677 mmHg 54%
    08:00 +5°C° 0 mm 1 m/s 677 mmHg 52%
    09:00 +6°C° 0 mm 1 m/s 678 mmHg 47%
    10:00 +8°C° 0 mm 1 m/s 678 mmHg 41%
    11:00 +9°C° 0 mm 1 m/s 678 mmHg 36%
    12:00 +10°C° 0 mm 1 m/s 678 mmHg 35%
    13:00 +11°C° 0 mm 1 m/s 678 mmHg 33%
    14:00 +10°C° 0 mm 0 m/s 678 mmHg 32%
    15:00 +9°C° 0 mm 0 m/s 678 mmHg 37%
    16:00 +7°C° 0 mm 0 m/s 678 mmHg 41%
    17:00 +6°C° 0 mm 0 m/s 677 mmHg 45%
    18:00 +6°C° 0 mm 0 m/s 677 mmHg 46%
    19:00 +5°C° 0 mm 0 m/s 677 mmHg 47%
    20:00 +5°C° 0 mm 0 m/s 677 mmHg 48%
    21:00 +5°C° 0 mm 0 m/s 677 mmHg 48%
    22:00 +5°C° 0 mm 1 m/s 677 mmHg 49%
    23:00 +5°C° 0 mm 1 m/s 677 mmHg 49%

    Amanhã, 12 Dezembro, Terça-feira

    Tempo Temperatura Precipitação Vento Pressão Humidade
    00:00 +5°C° 0 mm 1 m/s 677 mmHg 50%
    01:00 +5°C° 0 mm 1 m/s 677 mmHg 51%
    02:00 +5°C° 0 mm 1 m/s 677 mmHg 51%
    03:00 +5°C° 0 mm 1 m/s 677 mmHg 53%
    04:00 +4°C° 0 mm 1 m/s 676 mmHg 55%
    05:00 +4°C° 0 mm 1 m/s 676 mmHg 56%
    06:00 +5°C° 0 mm 1 m/s 676 mmHg 54%
    07:00 +6°C° 0 mm 1 m/s 677 mmHg 51%
    08:00 +7°C° 0 mm 1 m/s 677 mmHg 49%
    09:00 +9°C° 0 mm 1 m/s 677 mmHg 43%
    10:00 +11°C° 0 mm 1 m/s 677 mmHg 38%
    11:00 +12°C° 0 mm 1 m/s 678 mmHg 32%
    12:00 +13°C° 0 mm 1 m/s 677 mmHg 31%
    13:00 +13°C° 0 mm 1 m/s 677 mmHg 29%
    14:00 +14°C° 0 mm 1 m/s 677 mmHg 28%
    15:00 +12°C° 0 mm 1 m/s 676 mmHg 32%
    16:00 +11°C° 0 mm 1 m/s 676 mmHg 36%
    17:00 +9°C° 0 mm 1 m/s 675 mmHg 40%
    18:00 +9°C° 0 mm 1 m/s 675 mmHg 41%
    19:00 +8°C° 0 mm 1 m/s 675 mmHg 41%
    20:00 +8°C° 0 mm 1 m/s 675 mmHg 42%
    21:00 +8°C° 0 mm 1 m/s 674 mmHg 42%
    22:00 +7°C° 0 mm 1 m/s 674 mmHg 42%
    23:00 +7°C° 0 mm 1 m/s 674 mmHg 42%

    Depois de amanhã, 13 Dezembro, Quarta-feira

    Tempo Temperatura Precipitação Vento Pressão Humidade
    00:00 +7°C° 0 mm 1 m/s 674 mmHg 41%
    01:00 +7°C° 0 mm 1 m/s 674 mmHg 41%
    02:00 +6°C° 0 mm 1 m/s 674 mmHg 40%
    03:00 +6°C° 0 mm 1 m/s 673 mmHg 39%
    04:00 +6°C° 0 mm 1 m/s 673 mmHg 39%
    05:00 +6°C° 0 mm 1 m/s 673 mmHg 38%
    06:00 +7°C° 0 mm 1 m/s 673 mmHg 37%
    07:00 +8°C° 0 mm 1 m/s 674 mmHg 36%
    08:00 +8°C° 0 mm 1 m/s 674 mmHg 35%
    09:00 +10°C° 0 mm 1 m/s 674 mmHg 31%
    10:00 +12°C° 0 mm 1 m/s 674 mmHg 26%
    11:00 +13°C° 0 mm 0 m/s 675 mmHg 22%
    12:00 +14°C° 0 mm 1 m/s 674 mmHg 21%
    13:00 +14°C° 0 mm 1 m/s 674 mmHg 20%
    14:00 +15°C° 0 mm 1 m/s 674 mmHg 19%
    15:00 +13°C° 0 mm 1 m/s 673 mmHg 22%
    16:00 +12°C° 0 mm 1 m/s 673 mmHg 26%
    17:00 +9°C° 0 mm 0 m/s 672 mmHg 29%
    18:00 +9°C° 0 mm 1 m/s 673 mmHg 30%
    19:00 +9°C° 0 mm 1 m/s 673 mmHg 30%
    20:00 +8°C° 0 mm 1 m/s 673 mmHg 31%
    21:00 +8°C° 0 mm 1 m/s 672 mmHg 31%
    22:00 +8°C° 0 mm 1 m/s 672 mmHg 31%
    23:00 +7°C° 0 mm 1 m/s 672 mmHg 32%

    14 Dezembro, Quinta-feira

    Tempo Temperatura Precipitação Vento Pressão Humidade
    00:00 +7°C° 0 mm 1 m/s 672 mmHg 32%
    01:00 +7°C° 0 mm 1 m/s 672 mmHg 31%
    02:00 +6°C° 0 mm 1 m/s 672 mmHg 31%
    03:00 +6°C° 0 mm 1 m/s 672 mmHg 32%
    04:00 +6°C° 0 mm 1 m/s 672 mmHg 32%
    05:00 +6°C° 0 mm 1 m/s 672 mmHg 32%
    06:00 +6°C° 0 mm 1 m/s 672 mmHg 32%
    07:00 +7°C° 0 mm 1 m/s 673 mmHg 32%
    08:00 +7°C° 0 mm 0 m/s 673 mmHg 32%
    09:00 +9°C° 0 mm 0 m/s 674 mmHg 28%
    10:00 +10°C° 0 mm 0 m/s 674 mmHg 24%
    11:00 +12°C° 0 mm 0 m/s 674 mmHg 20%
    12:00 +14°C° 0 mm 1 m/s 674 mmHg 21%
    13:00 +14°C° 0 mm 1 m/s 674 mmHg 21%
    14:00 +14°C° 0 mm 1 m/s 673 mmHg 21%
    15:00 +13°C° 0 mm 1 m/s 673 mmHg 25%
    16:00 +11°C° 0 mm 1 m/s 673 mmHg 30%
    17:00 +9°C° 0 mm 1 m/s 672 mmHg 35%
    18:00 +9°C° 0 mm 1 m/s 672 mmHg 37%
    19:00 +7°C° 0 mm 0 m/s 672 mmHg 39%
    20:00 +7°C° 0 mm 0 m/s 672 mmHg 41%
    21:00 +7°C° 0 mm 0 m/s 672 mmHg 42%
    22:00 +7°C° 0 mm 0 m/s 672 mmHg 44%
    23:00 +6°C° 0 mm 0 m/s 672 mmHg 46%

    15 Dezembro, Sexta-feira

    Tempo Temperatura Precipitação Vento Pressão Humidade
    00:00 +6°C° 0 mm 0 m/s 672 mmHg 48%
    01:00 +6°C° 0 mm 0 m/s 672 mmHg 50%
    02:00 +6°C° 0 mm 1 m/s 672 mmHg 52%
    03:00 +6°C° 0 mm 1 m/s 672 mmHg 53%
    04:00 +6°C° 0 mm 1 m/s 672 mmHg 55%
    05:00 +5°C° 0 mm 1 m/s 672 mmHg 56%
    06:00 +6°C° 0 mm 1 m/s 672 mmHg 55%
    07:00 +7°C° 0 mm 1 m/s 673 mmHg 53%
    08:00 +8°C° 0 mm 1 m/s 673 mmHg 51%
    09:00 +8°C° 0 mm 0 m/s 674 mmHg 47%
    10:00 +10°C° 0 mm 0 m/s 674 mmHg 42%
    11:00 +11°C° 0 mm 0 m/s 674 mmHg 38%
    12:00 +11°C° 0 mm 0 m/s 674 mmHg 38%
    13:00 +13°C° 0 mm 1 m/s 674 mmHg 37%
    14:00 +13°C° 0 mm 1 m/s 674 mmHg 37%
    15:00 +12°C° 0 mm 1 m/s 674 mmHg 43%
    16:00 +9°C° 0 mm 0 m/s 673 mmHg 48%
    17:00 +8°C° 0 mm 0 m/s 673 mmHg 53%
    18:00 +8°C° 0 mm 0 m/s 673 mmHg 55%
    19:00 +7°C° 0 mm 0 m/s 674 mmHg 57%
    20:00 +7°C° 0 mm 0 m/s 674 mmHg 59%
    21:00 +6°C° 0 mm 0 m/s 674 mmHg 61%
    22:00 +6°C° 0 mm 0 m/s 674 mmHg 63%
    23:00 +6°C° 0 mm 0 m/s 673 mmHg 65%

    16 Dezembro, Sábado

    Tempo Temperatura Precipitação Vento Pressão Humidade
    00:00 +5°C° 0 mm 0 m/s 673 mmHg 67%
    01:00 +5°C° 0 mm 0 m/s 673 mmHg 69%
    02:00 +5°C° 0 mm 0 m/s 673 mmHg 70%
    03:00 +4°C° 0 mm 0 m/s 673 mmHg 72%
    04:00 +4°C° 0 mm 0 m/s 673 mmHg 73%
    05:00 +4°C° 0 mm 0 m/s 673 mmHg 74%
    06:00 +5°C° 0 mm 0 m/s 674 mmHg 71%
    07:00 +5°C° 0 mm 0 m/s 674 mmHg 69%
    08:00 +6°C° 0 mm 0 m/s 675 mmHg 66%
    09:00 +8°C° 0 mm 0 m/s 675 mmHg 61%
    10:00 +9°C° 0 mm 0 m/s 675 mmHg 56%
    11:00 +11°C° 0 mm 0 m/s 675 mmHg 51%
    12:00 +11°C° 0 mm 0 m/s 675 mmHg 49%
    13:00 +12°C° 0 mm 1 m/s 675 mmHg 48%
    14:00 +13°C° 0 mm 1 m/s 675 mmHg 47%
    15:00 +12°C° 0 mm 1 m/s 675 mmHg 52%
    16:00 +10°C° 0 mm 1 m/s 674 mmHg 57%
    17:00 +9°C° 0 mm 1 m/s 674 mmHg 62%
    18:00 +7°C° 0 mm 0 m/s 674 mmHg 65%
    19:00 +7°C° 0 mm 0 m/s 674 mmHg 67%
    20:00 +6°C° 0 mm 0 m/s 674 mmHg 69%
    21:00 +6°C° 0 mm 0 m/s 674 mmHg 71%
    22:00 +6°C° 0 mm 0 m/s 674 mmHg 73%
    23:00 +5°C° 0 mm 0 m/s 674 mmHg 76%
    Mostrar mais